Regional Weather Roundup
Issued by NWS Goodland, KS

Home | Current Version | Previous Version | Text Only | Print | Product List | Glossary Off
Versions: 1 2 3 4 5 6 7 8 9 10 11 12 13 14 15 16 17 18 19 20 21 22 23 24 25 26 27 28 29 30 31 32 33 34 35 36 37 38 39 40 41 42 43 44 45 46 47 48 49 50

081
ASUS43 KGLD 230759
RWRGLD

GOODLAND FORECAST AREA HOURLY WEATHER ROUNDUP
NATIONAL WEATHER SERVICE GOODLAND KS
200 AM MDT MON OCT 23 2017

...OFFICIAL OBSERVATIONS...

CITY           SKY/WX    TMP DP  RH WIND       PRES   REMARKS
GOODLAND KS    CLEAR     45  28  51 W12       30.07R
HILL CITY KS   CLEAR     47  31  53 W8        29.99F
IMPERIAL NEB   CLEAR     45  32  60 W10       30.03S
MCCOOK NEB     CLEAR     45  30  55 W8        30.00S
AKRON CO       CLEAR     58  29  33 NW24G31   30.11S
BURLINGTON CO  CLEAR     43  29  57 W10       30.11R
LIMON CO       CLOUDY    35  27  72 N5        30.17S
$$

...UNOFFICIAL OBSERVATIONS...

CITY           SKY/WX    TMP DP  RH WIND       PRES   REMARKS
LENORA KS        N/A     52  32  46 NW6         N/A
NORTON KS      CLEAR     45  27  49 W7        29.96F
SHARON SPRINGS   N/A     44  29  55 CALM        N/A
TRENTON NEB      N/A     52  32  46 NW6         N/A
KIT CARSON CO    N/A     40  27  59 CALM        N/A
YUMA CO        FAIR      43  30  61 W10       30.09S
$$




USA.gov is the U.S. government's official web portal to all federal, state and local government web resources and services.